Welcome to the New NWS' Forecast!
Most changes are behind the scenes, but click here for differences you might notice.

Regional Weather Roundup (RWR)

Issued by Jackson, KY (JKL)

                            
651 
ASUS43 KJKL 201210
RWRJKL

EAST KENTUCKY HOURLY WEATHER ROUNDUP
NATIONAL WEATHER SERVICE JACKSON KY
800 AM EDT MON AUG 20 2018

NOTE: "FAIR" INDICATES FEW OR NO CLOUDS BELOW 12,000 FEET WITH
NO SIGNIFICANT WEATHER AND/OR OBSTRUCTIONS TO VISIBILITY.

* THESE REPORTS ARE NOT UNDER NWS QUALITY CONTROL AND MAY NOT
  REPORT WEATHER SUCH AS PRECIPITATION AND FOG.

KYZ079-080-083-085-087-088-110-112-115-119-120-201300
...EASTERN KENTUCKY...
  
CITY           SKY/WX    TMP DP  RH WIND       PRES   REMARKS
JACKSON          N/A     70  69  97 CALM      30.03R                  
6HR MIN TEMP:  70; 6HR MAX TEMP:  72;                                

LONDON         PTSUNNY   69  69 100 CALM      30.02R                  
6HR MIN TEMP:  68; 6HR MAX TEMP:  72; 6HR PCP: TRACE;                

SOMERSET*        N/A     70  70 100 CALM      30.02S                  
MONTICELLO*      N/A     69  69 100 N12         N/A  FOG              
6HR MIN TEMP:  67; 6HR MAX TEMP:  69;                                

WILLIAMSBURG*  CLOUDY    68  68 100 CALM      30.03R VSB<1/4          
MIDDLESBORO*   CLOUDY    70  70  99 CALM      30.05R                  
6HR MIN TEMP:  69; 6HR MAX TEMP:  72;                                

HARLAN APT*    CLOUDY    69  69  99 CALM      30.06R VSB 1/4          
PIKE CO APT*   FOG       69  69 100 CALM      30.04R VSB<1/4          
BIG SANDY APT* FOG       68  68 100 CALM      30.03R VSB 1/4          
6HR MIN TEMP:  67; 6HR MAX TEMP:  71;                                

MOREHEAD APT*    N/A     70  68  94 CALM      30.02R FOG              
ASHLAND*       PTSUNNY   68  67  96 CALM      30.01R FOG              
$$

KYZ035-036-041-042-044-050-067-078-099-201300
...CENTRAL KENTUCKY...
  
CITY           SKY/WX    TMP DP  RH WIND       PRES   REMARKS
MT STERLING*     N/A     70  70 100 SE3       30.02R                  
FLEMING/MASON*   N/A     67  67 100 CALM      30.02R FOG              
DANVILLE*        N/A     70  68  94 S5        30.01R FOG              
LEXINGTON      CLOUDY    72  70  93 SE5       29.99R                  
6HR MIN TEMP:  71; 6HR MAX TEMP:  75;                                

FRANKFORT      CLOUDY    73  70  90 SE3       29.96S                  
6HR MIN TEMP:  70; 6HR MAX TEMP:  74;                                

LOUISVILLE     CLOUDY    75  71  87 SE7       29.93S                  
6HR MIN TEMP:  73; 6HR MAX TEMP:  77;                                

LEBANON*       PTSUNNY   73  72  94 SE7       29.97F FOG              
GLASGOW*       MOCLDY    73  70  89 SE3       29.95S                  
BOWLING GREEN    N/A     76  73  91 S8        29.94R                  
6HR MIN TEMP:  75; 6HR MAX TEMP:  77;                                

$$

KYZ091>093-OHZ055-061-077-WVZ005-015-034-035-042-201300
...SOUTHERN OHIO/WEST VIRGINIA...
  
CITY           SKY/WX    TMP DP  RH WIND       PRES   REMARKS
COVINGTON      PTSUNNY   71  68  90 SE8       29.98R                  
COLUMBUS         N/A     67  62  84 CALM      30.01R                  
DAYTON         PTSUNNY   67  63  87 E6        30.02R                  
WILMINGTON       N/A     65  65 100 E5        30.01R                  
HUNTINGTON     PTSUNNY   68  66  93 E3        30.00S FOG              
CHARLESTON     FOG       69  69 100 CALM      30.03R VSB 1/2          
PINEVILLE*     CLOUDY    69  67  95 MISG      30.13R                  
BECKLEY          N/A     68  65  90 SE7       30.11R                  
BLUEFIELD      CLOUDY    66  66 100 CALM      30.14R                  
LOGAN CO APT*  CLOUDY    70  70 100 CALM      30.05R                  
$$

VAZ002-007-008-TNZ017-027-036-066-071-201300
...SOUTHWEST VIRGINIA/EAST TENNESSEE...
  
CITY           SKY/WX    TMP DP  RH WIND       PRES   REMARKS
WISE*            N/A     68  68 100 S3        30.12R                  
ABINGDON*      CLOUDY    72  72 100 E3        30.10R                  
BRISTOL        CLOUDY    72  72 100 CALM      30.07R                  
MORRISTOWN*    PTSUNNY   73  73 100 MISG      30.04R FOG              
SEVIERVILLE*   SUNNY     72  70  94 CALM      30.04R                  
KNOXVILLE      CLOUDY    73  72  96 SW5       30.03R                  
LAFOLLETTE*    FOG       72  72 100 CALM      30.07R VSB 1/4          
OAK RIDGE      CLOUDY    75  75 100 VRB6      30.04R                  
CROSSVILLE     PTSUNNY   70  68  93 S3        30.05F                  
NASHVILLE      LGT RAIN  75  72  90 S7        29.97R FOG              
$$

...KEY TO REMARKS...
VSB - VISIBILITY IN MILES
WCI - WIND CHILL INDEX
HX  - HEAT INDEX

$$